,,,PA_Meas_PMT16A,,PR_Meas_QMR101_102,,RH_Meas_QMH101,,SR_Meas_QMS101,,TA_Meas_QMH101,,GenWind,,GenWind,
date,time,status,PA,status,PR,status,RH,status,SR,status,TA,status,DirAvg,status,SpdAvg,
2014-12-23, 00:00:05,VALID,1009.19,VALID,0.5,INVALID,139.765,VALID,0,VALID,23.8322,VALID,241,VALID,0,
2014-12-23, 00:01:05,VALID,1009.18,VALID,0.5,INVALID,139.551,VALID,0,VALID,23.8109,VALID,241,VALID,0,
2014-12-23, 00:02:05,VALID,1009.19,VALID,0,INVALID,139.262,VALID,0,VALID,23.772,VALID,241,VALID,0,
2014-12-23, 00:03:05,VALID,1009.19,VALID,0.5,INVALID,139.002,VALID,0,VALID,23.772,VALID,241,VALID,0,
2014-12-23, 00:04:05,VALID,1009.15,VALID,0.5,INVALID,138.735,VALID,0,VALID,23.7525,VALID,241,VALID,0,
2014-12-23, 00:05:05,VALID,1009.12,VALID,0,INVALID,138.407,VALID,0,VALID,23.733,VALID,241,VALID,0,
2014-12-23, 00:06:05,VALID,1009.1,VALID,0.5,INVALID,138.156,VALID,0,VALID,23.7543,VALID,241,VALID,0,
2014-12-23, 00:07:05,VALID,1009.12,VALID,0.5,INVALID,137.828,VALID,0,VALID,23.733,VALID,241,VALID,0,
2014-12-23, 00:08:05,VALID,1009.08,VALID,0,INVALID,137.5,VALID,0,VALID,23.7525,VALID,241,VALID,0,
2014-12-23, 00:09:05,VALID,1009.07,VALID,0.5,INVALID,137.18,VALID,0,VALID,23.7525,VALID,241,VALID,0,
2014-12-23, 00:10:05,VALID,1009.05,VALID,0.5,INVALID,136.89,VALID,0,VALID,23.7525,VALID,241,VALID,0,
2014-12-23, 00:11:05,VALID,1009.06,VALID,0.5,INVALID,136.585,VALID,0,VALID,23.733,VALID,241,VALID,0,
2014-12-23, 00:12:05,VALID,1009.06,VALID,0.5,INVALID,136.326,VALID,0,VALID,23.7135,VALID,241,VALID,0,
2014-12-23, 00:13:05,VALID,1009.06,VALID,1,INVALID,136.051,VALID,0,VALID,23.7135,VALID,241,VALID,0,
2014-12-23, 00:14:05,VALID,1009.05,VALID,1,INVALID,135.754,VALID,0,VALID,23.7135,VALID,241,VALID,0,
2014-12-23, 00:15:05,VALID,1009.03,VALID,0.5,INVALID,135.433,VALID,0,VALID,23.7135,VALID,241,VALID,0,
2014-12-23, 00:16:05,VALID,1009.06,VALID,0.5,INVALID,135.189,VALID,0,VALID,23.7525,VALID,241,VALID,0,
2014-12-23, 00:17:05,VALID,1009.07,VALID,1,INVALID,134.961,VALID,0,VALID,23.7525,VALID,241,VALID,0,
2014-12-23, 00:18:05,VALID,1009,VALID,0.5,INVALID,134.694,VALID,0.112112,VALID,23.7117,VALID,241,VALID,0,
2014-12-23, 00:19:05,VALID,1008.98,VALID,0.5,INVALID,134.457,VALID,0,VALID,23.7117,VALID,241,VALID,0,
2014-12-23, 00:20:05,VALID,1008.96,VALID,0,INVALID,134.19,VALID,0.112112,VALID,23.7117,VALID,241,VALID,0,
2014-12-23, 00:21:05,VALID,1008.96,VALID,0.5,INVALID,133.984,VALID,0.112112,VALID,23.733,VALID,241,VALID,0,
2014-12-23, 00:22:05,VALID,1008.95,VALID,0.5,INVALID,133.756,VALID,0,VALID,23.7135,VALID,241,VALID,0,
2014-12-23, 00:23:05,VALID,1008.93,VALID,0.5,INVALID,133.474,VALID,0.112112,VALID,23.7117,VALID,241,VALID,0,
2014-12-23, 00:24:05,VALID,1008.93,VALID,0,INVALID,133.298,VALID,0.112112,VALID,23.7117,VALID,241,VALID,0,
2014-12-23, 00:25:05,VALID,1008.9,VALID,0.5,INVALID,133.085,VALID,0.112112,VALID,23.7117,VALID,241,VALID,0,
2014-12-23, 00:26:05,VALID,1008.91,VALID,0,INVALID,132.871,VALID,0.112112,VALID,23.7117,VALID,241,VALID,0,
2014-12-23, 00:27:05,VALID,1008.9,VALID,0.5,INVALID,132.658,VALID,0,VALID,23.7135,VALID,241,VALID,0,
2014-12-23, 00:28:05,VALID,1008.88,VALID,0.5,INVALID,132.505,VALID,0.112112,VALID,23.7135,VALID,241,VALID,0,
2014-12-23, 00:29:05,VALID,1008.84,VALID,0.5,INVALID,132.322,VALID,0,VALID,23.6727,VALID,241,VALID,0,
2014-12-23, 00:30:05,VALID,1008.84,VALID,0,INVALID,132.177,VALID,0.112112,VALID,23.6727,VALID,241,VALID,0,
2014-12-23, 00:31:05,VALID,1008.79,VALID,0,INVALID,131.895,VALID,0,VALID,23.694,VALID,241,VALID,0,
2014-12-23, 00:32:05,VALID,1008.77,VALID,0.5,INVALID,131.651,VALID,0,VALID,23.7348,VALID,241,VALID,0,
2014-12-23, 00:33:05,VALID,1008.77,VALID,0,INVALID,131.468,VALID,0,VALID,23.733,VALID,241,VALID,0,
2014-12-23, 00:34:05,VALID,1008.77,VALID,0,INVALID,131.277,VALID,0,VALID,23.7525,VALID,241,VALID,0,
2014-12-23, 00:35:05,VALID,1008.8,VALID,0,INVALID,131.087,VALID,0,VALID,23.772,VALID,241,VALID,0,
2014-12-23, 00:36:05,VALID,1008.81,VALID,0,INVALID,130.904,VALID,0,VALID,23.7525,VALID,241,VALID,0,
2014-12-23, 00:37:05,VALID,1008.78,VALID,0.5,INVALID,130.782,VALID,0,VALID,23.7525,VALID,241,VALID,0,
2014-12-23, 00:38:05,VALID,1008.82,VALID,0,INVALID,130.583,VALID,0,VALID,23.733,VALID,241,VALID,0,
2014-12-23, 00:39:05,VALID,1008.8,VALID,0,INVALID,130.37,VALID,0,VALID,23.7932,VALID,241,VALID,0,
2014-12-23, 00:40:05,VALID,1008.84,VALID,0.5,INVALID,130.248,VALID,0,VALID,23.772,VALID,241,VALID,0,
2014-12-23, 00:41:05,VALID,1008.81,VALID,0,INVALID,130.065,VALID,0,VALID,23.7932,VALID,241,VALID,0,
2014-12-23, 00:42:05,VALID,1008.82,VALID,0.5,INVALID,129.928,VALID,0,VALID,23.772,VALID,240,VALID,0,
2014-12-23, 00:43:05,VALID,1008.85,VALID,0.5,INVALID,129.836,VALID,0,VALID,23.772,VALID,240,VALID,0,
2014-12-23, 00:44:05,VALID,1008.9,VALID,0.5,INVALID,129.699,VALID,0,VALID,23.772,VALID,240,VALID,0,
2014-12-23, 00:45:05,VALID,1008.9,VALID,0,INVALID,129.577,VALID,0,VALID,23.7507,VALID,240,VALID,0,
2014-12-23, 00:46:05,VALID,1008.95,VALID,0.5,INVALID,129.44,VALID,0,VALID,23.772,VALID,240,VALID,0,
2014-12-23, 00:47:05,VALID,1008.92,VALID,0,INVALID,129.279,VALID,0,VALID,23.7914,VALID,240,VALID,0,
2014-12-23, 00:48:05,VALID,1008.92,VALID,0.5,INVALID,129.173,VALID,0,VALID,23.772,VALID,240,VALID,0,
2014-12-23, 00:49:05,VALID,1008.87,VALID,0,INVALID,129.096,VALID,0,VALID,23.772,VALID,240,VALID,0,
2014-12-23, 00:50:05,VALID,1008.87,VALID,0,INVALID,128.967,VALID,0,VALID,23.7932,VALID,240,VALID,0,
2014-12-23, 00:51:05,VALID,1008.83,VALID,0,INVALID,128.837,VALID,0,VALID,23.7914,VALID,240,VALID,0,
2014-12-23, 00:52:05,VALID,1008.81,VALID,0.5,INVALID,128.73,VALID,0,VALID,23.7914,VALID,241,VALID,0,
2014-12-23, 00:53:05,VALID,1008.8,VALID,0,INVALID,128.677,VALID,0,VALID,23.772,VALID,240,VALID,0,
2014-12-23, 00:54:05,VALID,1008.76,VALID,0,INVALID,128.509,VALID,0,VALID,23.7914,VALID,241,VALID,0,
2014-12-23, 00:55:05,VALID,1008.71,VALID,0,INVALID,128.425,VALID,0,VALID,23.7914,VALID,240,VALID,0,
2014-12-23, 00:56:05,VALID,1008.69,VALID,0,INVALID,128.273,VALID,0,VALID,23.8109,VALID,240,VALID,0,
2014-12-23, 00:57:05,VALID,1008.64,VALID,0,INVALID,128.12,VALID,0,VALID,23.8322,VALID,240,VALID,0,
2014-12-23, 00:58:05,VALID,1008.63,VALID,0,INVALID,128.044,VALID,0,VALID,23.8109,VALID,240,VALID,0,
2014-12-23, 00:59:05,VALID,1008.6,VALID,0.5,INVALID,127.907,VALID,0,VALID,23.8322,VALID,240,VALID,0,
2014-12-23, 01:00:05,VALID,1008.57,VALID,0,INVALID,127.884,VALID,0,VALID,23.7914,VALID,240,VALID,0,
2014-12-23, 01:01:05,VALID,1008.58,VALID,0,INVALID,127.876,VALID,0,VALID,23.7932,VALID,240,VALID,0,
2014-12-23, 01:02:05,VALID,1008.52,VALID,0.5,INVALID,127.869,VALID,0,VALID,23.7525,VALID,285,VALID,0,
2014-12-23, 01:03:05,VALID,1008.54,VALID,0,INVALID,128.364,VALID,0,VALID,23.6373,VALID,303,VALID,0,
2014-12-23, 01:04:05,VALID,1008.48,VALID,0,INVALID,128.189,VALID,0,VALID,23.5984,VALID,303,VALID,0,
2014-12-23, 01:05:05,VALID,1008.49,VALID,0,INVALID,128.28,VALID,0,VALID,23.5186,VALID,303,VALID,0,
2014-12-23, 01:06:05,VALID,1008.47,VALID,0.5,INVALID,128.265,VALID,0,VALID,23.4797,VALID,303,VALID,0,
2014-12-23, 01:07:05,VALID,1008.5,VALID,0,INVALID,128.227,VALID,0,VALID,23.4602,VALID,303,VALID,0,
2014-12-23, 01:08:05,VALID,1008.46,VALID,0,INVALID,128.158,VALID,0,VALID,23.4212,VALID,303,VALID,0,
2014-12-23, 01:09:05,VALID,1008.45,VALID,0,INVALID,128.12,VALID,0,VALID,23.4017,VALID,303,VALID,0,
2014-12-23, 01:10:05,VALID,1008.4,VALID,0.5,INVALID,128.265,VALID,0,VALID,23.3433,VALID,303,VALID,0,
2014-12-23, 01:11:05,VALID,1008.33,VALID,0,INVALID,128.174,VALID,0,VALID,23.3043,VALID,303,VALID,0,
2014-12-23, 01:12:05,VALID,1008.32,VALID,0,INVALID,128.006,VALID,0,VALID,23.3043,VALID,303,VALID,0,
2014-12-23, 01:13:05,VALID,1008.27,VALID,0,INVALID,127.907,VALID,0,VALID,23.3043,VALID,303,VALID,0,
2014-12-23, 01:14:05,VALID,1008.25,VALID,0.5,INVALID,127.922,VALID,0,VALID,23.2848,VALID,303,VALID,0,
2014-12-23, 01:15:05,VALID,1008.22,VALID,0,INVALID,127.831,VALID,0,VALID,23.2654,VALID,303,VALID,0,
2014-12-23, 01:16:05,VALID,1008.2,VALID,0,INVALID,127.754,VALID,0,VALID,23.2654,VALID,303,VALID,0,
2014-12-23, 01:17:05,VALID,1008.18,VALID,0,INVALID,127.777,VALID,0,VALID,23.2476,VALID,303,VALID,0,
2014-12-23, 01:18:05,VALID,1008.14,VALID,0,INVALID,127.815,VALID,0,VALID,23.1874,VALID,303,VALID,0,
2014-12-23, 01:19:05,VALID,1008.15,VALID,0,INVALID,127.861,VALID,0,VALID,23.1485,VALID,303,VALID,0,
2014-12-23, 01:20:05,VALID,1008.16,VALID,0,INVALID,127.77,VALID,0,VALID,23.1095,VALID,303,VALID,0,
2014-12-23, 01:21:05,VALID,1008.17,VALID,0,INVALID,127.663,VALID,0,VALID,23.09,VALID,303,VALID,0,
2014-12-23, 01:22:05,VALID,1008.17,VALID,0,INVALID,127.678,VALID,0,VALID,23.0705,VALID,303,VALID,0,
2014-12-23, 01:23:05,VALID,1008.15,VALID,0,INVALID,127.533,VALID,0,VALID,23.0705,VALID,303,VALID,0,
2014-12-23, 01:24:05,VALID,1008.16,VALID,0,INVALID,127.426,VALID,0,VALID,23.0723,VALID,303,VALID,0,
2014-12-23, 01:25:05,VALID,1008.15,VALID,0,INVALID,127.358,VALID,0,VALID,23.0511,VALID,303,VALID,0,
2014-12-23, 01:26:05,VALID,1008.16,VALID,0,INVALID,127.198,VALID,0,VALID,23.1112,VALID,303,VALID,0,
2014-12-23, 01:27:05,VALID,1008.13,VALID,0,INVALID,127.045,VALID,0,VALID,23.0705,VALID,303,VALID,0,
2014-12-23, 01:28:05,VALID,1008.11,VALID,0,INVALID,126.923,VALID,0,VALID,23.1095,VALID,303,VALID,0,
2014-12-23, 01:29:05,VALID,1008.13,VALID,0,INVALID,126.854,VALID,0,VALID,23.1095,VALID,303,VALID,0,
2014-12-23, 01:30:05,VALID,1008.16,VALID,0,INVALID,126.74,VALID,0,VALID,23.1502,VALID,303,VALID,0,
2014-12-23, 01:31:05,VALID,1008.16,VALID,0,INVALID,126.626,VALID,0,VALID,23.1679,VALID,303,VALID,0,
2014-12-23, 01:32:05,VALID,1008.18,VALID,0,INVALID,126.549,VALID,0,VALID,23.1485,VALID,303,VALID,0,
2014-12-23, 01:33:05,VALID,1008.17,VALID,0,INVALID,126.465,VALID,0,VALID,23.1272,VALID,303,VALID,0,
2014-12-23, 01:34:05,VALID,1008.19,VALID,0,INVALID,126.435,VALID,0.112112,VALID,23.1697,VALID,303,VALID,0,
2014-12-23, 01:35:05,VALID,1008.17,VALID,0.5,INVALID,126.351,VALID,0,VALID,23.1485,VALID,303,VALID,0,
2014-12-23, 01:36:05,VALID,1008.15,VALID,0,INVALID,126.282,VALID,0,VALID,23.129,VALID,303,VALID,0,
2014-12-23, 01:37:05,VALID,1008.16,VALID,0,INVALID,126.199,VALID,0,VALID,23.1485,VALID,303,VALID,0,
2014-12-23, 01:38:05,VALID,1008.15,VALID,0,INVALID,126.16,VALID,0,VALID,23.1485,VALID,303,VALID,0,
2014-12-23, 01:39:05,VALID,1008.13,VALID,0,INVALID,126.031,VALID,0,VALID,23.1874,VALID,303,VALID,0,
2014-12-23, 01:40:05,VALID,1008.13,VALID,0,INVALID,125.939,VALID,0,VALID,23.2264,VALID,303,VALID,0,
2014-12-23, 01:41:05,VALID,1008.17,VALID,0,INVALID,125.802,VALID,0,VALID,23.2459,VALID,303,VALID,0,
2014-12-23, 01:42:05,VALID,1008.14,VALID,0,INVALID,125.718,VALID,0,VALID,23.2459,VALID,303,VALID,0,
2014-12-23, 01:43:05,VALID,1008.14,VALID,0,INVALID,125.688,VALID,0,VALID,23.2264,VALID,303,VALID,0,
2014-12-23, 01:44:05,VALID,1008.11,VALID,0,INVALID,125.672,VALID,0,VALID,23.2264,VALID,302,VALID,0,
2014-12-23, 01:45:05,VALID,1008.1,VALID,0,INVALID,125.672,VALID,0,VALID,23.2069,VALID,290,VALID,0,
2014-12-23, 01:46:05,VALID,1008.09,VALID,0,INVALID,125.642,VALID,0,VALID,23.1874,VALID,290,VALID,0,
2014-12-23, 01:47:05,VALID,1008.1,VALID,0,INVALID,125.596,VALID,0,VALID,23.2087,VALID,290,VALID,0,
2014-12-23, 01:48:05,VALID,1008.11,VALID,0,INVALID,125.505,VALID,0,VALID,23.2069,VALID,290,VALID,0,
2014-12-23, 01:49:05,VALID,1008.1,VALID,0,INVALID,125.398,VALID,0,VALID,23.2264,VALID,290,VALID,0,
2014-12-23, 01:50:05,VALID,1008.08,VALID,0,INVALID,125.36,VALID,0,VALID,23.2459,VALID,290,VALID,0,
2014-12-23, 01:51:05,VALID,1008.08,VALID,0,INVALID,125.39,VALID,0,VALID,23.1874,VALID,290,VALID,0,
2014-12-23, 01:52:05,VALID,1008.11,VALID,0,INVALID,125.299,VALID,0,VALID,23.2264,VALID,281,VALID,0,
2014-12-23, 01:53:05,VALID,1008.11,VALID,0,INVALID,125.23,VALID,0,VALID,23.1874,VALID,258,VALID,0,
2014-12-23, 01:54:05,VALID,1008.12,VALID,0,INVALID,125.192,VALID,0,VALID,23.1874,VALID,258,VALID,0,
2014-12-23, 01:55:05,VALID,1008.08,VALID,0,INVALID,125.215,VALID,0,VALID,23.1892,VALID,258,VALID,0,
2014-12-23, 01:56:05,VALID,1008.05,VALID,0,INVALID,125.154,VALID,0,VALID,23.1679,VALID,258,VALID,0,
2014-12-23, 01:57:05,VALID,1008.05,VALID,0,INVALID,125.154,VALID,0,VALID,23.1679,VALID,258,VALID,0,
2014-12-23, 01:58:05,VALID,1008.03,VALID,0,INVALID,125.1,VALID,0,VALID,23.1485,VALID,258,VALID,0,
2014-12-23, 01:59:05,VALID,1008.03,VALID,0,INVALID,125.047,VALID,0,VALID,23.1679,VALID,258,VALID,0,
2014-12-23, 02:00:05,VALID,1008.02,VALID,0,INVALID,124.963,VALID,0,VALID,23.1874,VALID,258,VALID,0,
2014-12-23, 02:01:05,VALID,1008,VALID,0,INVALID,124.925,VALID,0,VALID,23.1679,VALID,258,VALID,0,
2014-12-23, 02:02:05,VALID,1007.98,VALID,0,INVALID,124.925,VALID,0,VALID,23.1485,VALID,258,VALID,0,
2014-12-23, 02:03:05,VALID,1007.95,VALID,0,INVALID,124.864,VALID,0,VALID,23.1679,VALID,258,VALID,0,
2014-12-23, 02:04:05,VALID,1007.93,VALID,0,INVALID,124.811,VALID,0,VALID,23.1892,VALID,258,VALID,0,
2014-12-23, 02:05:05,VALID,1007.89,VALID,0,INVALID,124.712,VALID,0,VALID,23.2087,VALID,258,VALID,0,
2014-12-23, 02:06:05,VALID,1007.89,VALID,0,INVALID,124.643,VALID,0,VALID,23.2087,VALID,258,VALID,0,
2014-12-23, 02:07:04,VALID,1007.84,VALID,0,INVALID,124.574,VALID,0,VALID,23.2282,VALID,258,VALID,0,
2014-12-23, 02:08:04,VALID,1007.81,VALID,0,INVALID,124.59,VALID,0,VALID,23.2069,VALID,258,VALID,0,
2014-12-23, 02:09:04,VALID,1007.79,VALID,0,INVALID,124.551,VALID,0,VALID,23.2069,VALID,258,VALID,0,
2014-12-23, 02:10:04,VALID,1007.82,VALID,0,INVALID,124.567,VALID,0,VALID,23.2264,VALID,258,VALID,0,
2014-12-23, 02:11:04,VALID,1007.8,VALID,0,INVALID,124.437,VALID,0,VALID,23.2476,VALID,258,VALID,0,
2014-12-23, 02:12:04,VALID,1007.8,VALID,0,INVALID,124.414,VALID,0,VALID,23.2459,VALID,258,VALID,0,
2014-12-23, 02:13:04,VALID,1007.82,VALID,0,INVALID,124.414,VALID,0,VALID,23.2671,VALID,258,VALID,0,
2014-12-23, 02:14:04,VALID,1007.82,VALID,0,INVALID,124.33,VALID,0,VALID,23.2654,VALID,258,VALID,0,
2014-12-23, 02:15:04,VALID,1007.78,VALID,0,INVALID,124.368,VALID,0,VALID,23.2654,VALID,258,VALID,0,
2014-12-23, 02:16:04,VALID,1007.79,VALID,0,INVALID,124.315,VALID,0,VALID,23.2264,VALID,258,VALID,0,
2014-12-23, 02:17:04,VALID,1007.77,VALID,0,INVALID,124.368,VALID,0,VALID,23.2264,VALID,258,VALID,0,
2014-12-23, 02:18:04,VALID,1007.73,VALID,0,INVALID,124.391,VALID,0,VALID,23.2087,VALID,258,VALID,0,
2014-12-23, 02:19:04,VALID,1007.74,VALID,0,INVALID,124.323,VALID,0,VALID,23.2069,VALID,258,VALID,0,
2014-12-23, 02:20:04,VALID,1007.73,VALID,0,INVALID,124.277,VALID,0,VALID,23.2069,VALID,258,VALID,0,
2014-12-23, 02:21:04,VALID,1007.69,VALID,0,INVALID,124.224,VALID,0,VALID,23.2282,VALID,258,VALID,0,
2014-12-23, 02:22:04,VALID,1007.66,VALID,0,INVALID,124.17,VALID,0,VALID,23.2282,VALID,258,VALID,0,
2014-12-23, 02:23:04,VALID,1007.64,VALID,0,INVALID,124.178,VALID,0,VALID,23.2069,VALID,258,VALID,0,
2014-12-23, 02:24:04,VALID,1007.62,VALID,0,INVALID,124.147,VALID,0,VALID,23.2069,VALID,258,VALID,0,
2014-12-23, 02:25:04,VALID,1007.64,VALID,0,INVALID,124.041,VALID,0,VALID,23.2264,VALID,258,VALID,0,
2014-12-23, 02:26:04,VALID,1007.66,VALID,0,INVALID,123.979,VALID,0,VALID,23.2459,VALID,258,VALID,0,
2014-12-23, 02:27:04,VALID,1007.64,VALID,0,INVALID,123.926,VALID,0,VALID,23.2654,VALID,258,VALID,0,
2014-12-23, 02:28:04,VALID,1007.64,VALID,0,INVALID,123.789,VALID,0,VALID,23.3256,VALID,258,VALID,0,
2014-12-23, 02:29:04,VALID,1007.66,VALID,0,INVALID,123.804,VALID,0,VALID,23.3043,VALID,258,VALID,0,
2014-12-23, 02:30:04,VALID,1007.62,VALID,0,INVALID,123.758,VALID,0,VALID,23.384,VALID,258,VALID,0,
2014-12-23, 02:31:04,VALID,1007.65,VALID,0,INVALID,123.636,VALID,0,VALID,23.3628,VALID,258,VALID,0,
2014-12-23, 02:32:04,VALID,1007.66,VALID,0,INVALID,123.72,VALID,0,VALID,23.3645,VALID,258,VALID,0,
2014-12-23, 02:33:04,VALID,1007.65,VALID,0,INVALID,123.613,VALID,0,VALID,23.3823,VALID,258,VALID,0,
2014-12-23, 02:34:04,VALID,1007.65,VALID,0,INVALID,123.606,VALID,0,VALID,23.423,VALID,258,VALID,0,
2014-12-23, 02:35:04,VALID,1007.63,VALID,0,INVALID,123.575,VALID,0,VALID,23.4212,VALID,258,VALID,0,
2014-12-23, 02:36:04,VALID,1007.63,VALID,0,INVALID,123.591,VALID,0,VALID,23.4017,VALID,258,VALID,0,
2014-12-23, 02:37:04,VALID,1007.64,VALID,0,INVALID,123.644,VALID,0,VALID,23.3628,VALID,258,VALID,0,
2014-12-23, 02:38:04,VALID,1007.61,VALID,0,INVALID,123.606,VALID,0,VALID,23.3628,VALID,258,VALID,0,
2014-12-23, 02:39:04,VALID,1007.61,VALID,0,INVALID,123.667,VALID,0,VALID,23.3645,VALID,258,VALID,0,
2014-12-23, 02:40:04,VALID,1007.58,VALID,0,INVALID,123.591,VALID,0,VALID,23.384,VALID,258,VALID,0,
2014-12-23, 02:41:04,VALID,1007.59,VALID,0,INVALID,123.545,VALID,0,VALID,23.3628,VALID,258,VALID,0,
2014-12-23, 02:42:04,VALID,1007.57,VALID,0,INVALID,123.537,VALID,0,VALID,23.3433,VALID,258,VALID,0,
2014-12-23, 02:43:04,VALID,1007.57,VALID,0,INVALID,123.514,VALID,0.112112,VALID,23.3823,VALID,258,VALID,0,
2014-12-23, 02:44:04,VALID,1007.55,VALID,0,INVALID,123.484,VALID,0,VALID,23.3628,VALID,258,VALID,0,
2014-12-23, 02:45:04,VALID,1007.52,VALID,0,INVALID,123.469,VALID,0.112112,VALID,23.3628,VALID,258,VALID,0,
2014-12-23, 02:46:04,VALID,1007.54,VALID,0,INVALID,123.461,VALID,0,VALID,23.3415,VALID,258,VALID,0,
2014-12-23, 02:47:04,VALID,1007.54,VALID,0,INVALID,123.415,VALID,0,VALID,23.3823,VALID,258,VALID,0,
2014-12-23, 02:48:04,VALID,1007.55,VALID,0,INVALID,123.339,VALID,0,VALID,23.4017,VALID,258,VALID,0,
2014-12-23, 02:49:04,VALID,1007.54,VALID,0,INVALID,123.339,VALID,0,VALID,23.4017,VALID,258,VALID,0,
2014-12-23, 02:50:04,VALID,1007.57,VALID,0,INVALID,123.324,VALID,0.112112,VALID,23.4212,VALID,258,VALID,0,
2014-12-23, 02:51:04,VALID,1007.54,VALID,0,INVALID,123.278,VALID,0,VALID,23.4212,VALID,258,VALID,0,
2014-12-23, 02:52:04,VALID,1007.55,VALID,0,INVALID,123.301,VALID,0,VALID,23.4212,VALID,258,VALID,0,
2014-12-23, 02:53:04,VALID,1007.55,VALID,0,INVALID,123.247,VALID,0,VALID,23.4602,VALID,258,VALID,0,
2014-12-23, 02:54:04,VALID,1007.57,VALID,0,INVALID,123.217,VALID,0,VALID,23.4602,VALID,258,VALID,0,
2014-12-23, 02:55:04,VALID,1007.57,VALID,0,INVALID,123.179,VALID,0,VALID,23.5009,VALID,258,VALID,0,
2014-12-23, 02:56:04,VALID,1007.56,VALID,0,INVALID,123.156,VALID,0,VALID,23.4992,VALID,258,VALID,0,
2014-12-23, 02:57:04,VALID,1007.55,VALID,0,INVALID,123.171,VALID,0,VALID,23.5204,VALID,258,VALID,0,
2014-12-23, 02:58:04,VALID,1007.53,VALID,0,INVALID,123.225,VALID,0,VALID,23.5186,VALID,258,VALID,0,
2014-12-23, 02:59:04,VALID,1007.52,VALID,0,INVALID,123.202,VALID,0,VALID,23.5186,VALID,258,VALID,0,
2014-12-23, 03:00:04,VALID,1007.54,VALID,0,INVALID,123.202,VALID,0.112112,VALID,23.5381,VALID,258,VALID,0,
2014-12-23, 03:01:04,VALID,1007.51,VALID,0,INVALID,123.202,VALID,0,VALID,23.5381,VALID,258,VALID,0,
2014-12-23, 03:02:04,VALID,1007.52,VALID,0,INVALID,123.164,VALID,0,VALID,23.5381,VALID,258,VALID,0,
2014-12-23, 03:03:04,VALID,1007.49,VALID,0,INVALID,123.217,VALID,0,VALID,23.5381,VALID,258,VALID,0,
2014-12-23, 03:04:04,VALID,1007.49,VALID,0,INVALID,123.171,VALID,0,VALID,23.5789,VALID,250,VALID,0,
2014-12-23, 03:05:04,VALID,1007.52,VALID,0,INVALID,123.217,VALID,0,VALID,23.5594,VALID,214,VALID,0,
2014-12-23, 03:06:04,VALID,1007.51,VALID,0,INVALID,123.255,VALID,0,VALID,23.5576,VALID,214,VALID,0,
2014-12-23, 03:07:04,VALID,1007.52,VALID,0,INVALID,123.24,VALID,0,VALID,23.5789,VALID,211,VALID,0,
2014-12-23, 03:08:04,VALID,1007.5,VALID,0,INVALID,123.324,VALID,0,VALID,23.5594,VALID,187,VALID,0,
2014-12-23, 03:09:04,VALID,1007.52,VALID,0,INVALID,123.347,VALID,0,VALID,23.5789,VALID,187,VALID,0,
2014-12-23, 03:10:04,VALID,1007.5,VALID,0,INVALID,123.392,VALID,0,VALID,23.5789,VALID,187,VALID,0,
2014-12-23, 03:11:04,VALID,1007.49,VALID,0,INVALID,123.4,VALID,0,VALID,23.5594,VALID,187,VALID,0,
2014-12-23, 03:12:04,VALID,1007.49,VALID,0,INVALID,123.476,VALID,0,VALID,23.5789,VALID,187,VALID,0,
2014-12-23, 03:13:04,VALID,1007.44,VALID,0,INVALID,123.476,VALID,0,VALID,23.5789,VALID,187,VALID,0,
2014-12-23, 03:14:04,VALID,1007.45,VALID,0,INVALID,123.507,VALID,0,VALID,23.5576,VALID,187,VALID,0,
2014-12-23, 03:15:04,VALID,1007.47,VALID,0,INVALID,123.56,VALID,0,VALID,23.5381,VALID,187,VALID,0,
2014-12-23, 03:16:04,VALID,1007.43,VALID,0,INVALID,123.522,VALID,0,VALID,23.5576,VALID,187,VALID,0,
2014-12-23, 03:17:04,VALID,1007.43,VALID,0,INVALID,123.552,VALID,0,VALID,23.5789,VALID,187,VALID,0,
2014-12-23, 03:18:04,VALID,1007.44,VALID,0,INVALID,123.598,VALID,0,VALID,23.5771,VALID,187,VALID,0,
2014-12-23, 03:19:04,VALID,1007.43,VALID,0,INVALID,123.636,VALID,0,VALID,23.5771,VALID,187,VALID,0,
2014-12-23, 03:20:04,VALID,1007.4,VALID,0,INVALID,123.659,VALID,0,VALID,23.5771,VALID,187,VALID,0,
2014-12-23, 03:21:04,VALID,1007.43,VALID,0,INVALID,123.735,VALID,0,VALID,23.5789,VALID,187,VALID,0,
2014-12-23, 03:22:04,VALID,1007.41,VALID,0,INVALID,123.774,VALID,0,VALID,23.5576,VALID,187,VALID,0,
2014-12-23, 03:23:04,VALID,1007.41,VALID,0,INVALID,123.827,VALID,0,VALID,23.5576,VALID,187,VALID,0,
2014-12-23, 03:24:04,VALID,1007.41,VALID,0,INVALID,123.865,VALID,0,VALID,23.5576,VALID,187,VALID,0,
2014-12-23, 03:25:04,VALID,1007.39,VALID,0,INVALID,123.911,VALID,0,VALID,23.5576,VALID,187,VALID,0,
2014-12-23, 03:26:04,VALID,1007.39,VALID,0,INVALID,123.979,VALID,0,VALID,23.5576,VALID,187,VALID,0,
2014-12-23, 03:27:04,VALID,1007.4,VALID,0,INVALID,123.972,VALID,0,VALID,23.5576,VALID,187,VALID,0,
2014-12-23, 03:28:04,VALID,1007.42,VALID,0,INVALID,124.002,VALID,0,VALID,23.5576,VALID,187,VALID,0,
2014-12-23, 03:29:04,VALID,1007.42,VALID,0,INVALID,123.987,VALID,0,VALID,23.5966,VALID,187,VALID,0,
2014-12-23, 03:30:04,VALID,1007.43,VALID,0,INVALID,123.964,VALID,0,VALID,23.6373,VALID,187,VALID,0,
2014-12-23, 03:31:04,VALID,1007.41,VALID,0,INVALID,124.041,VALID,0,VALID,23.5966,VALID,187,VALID,0,
2014-12-23, 03:32:04,VALID,1007.44,VALID,0,INVALID,124.147,VALID,0,VALID,23.5966,VALID,187,VALID,0,
2014-12-23, 03:33:04,VALID,1007.47,VALID,0,INVALID,124.155,VALID,0,VALID,23.5966,VALID,187,VALID,0,
2014-12-23, 03:34:04,VALID,1007.45,VALID,0,INVALID,124.163,VALID,0,VALID,23.5966,VALID,187,VALID,0,
2014-12-23, 03:35:04,VALID,1007.41,VALID,0,INVALID,124.262,VALID,0,VALID,23.5966,VALID,187,VALID,0,
2014-12-23, 03:36:04,VALID,1007.41,VALID,0,INVALID,124.384,VALID,0,VALID,23.5966,VALID,187,VALID,0,
2014-12-23, 03:37:04,VALID,1007.4,VALID,0,INVALID,124.407,VALID,0,VALID,23.5966,VALID,187,VALID,0,
2014-12-23, 03:38:04,VALID,1007.36,VALID,0,INVALID,124.452,VALID,0,VALID,23.5771,VALID,187,VALID,0,
2014-12-23, 03:39:04,VALID,1007.36,VALID,0,INVALID,124.506,VALID,0,VALID,23.5771,VALID,187,VALID,0,
2014-12-23, 03:40:04,VALID,1007.33,VALID,0,INVALID,124.597,VALID,0,VALID,23.5576,VALID,187,VALID,0,
2014-12-23, 03:41:04,VALID,1007.31,VALID,0,INVALID,124.605,VALID,0,VALID,23.5771,VALID,187,VALID,0,
2014-12-23, 03:42:04,VALID,1007.32,VALID,0,INVALID,124.673,VALID,0,VALID,23.5771,VALID,187,VALID,0,
2014-12-23, 03:43:04,VALID,1007.31,VALID,0,INVALID,124.712,VALID,0,VALID,23.5771,VALID,187,VALID,0,
2014-12-23, 03:44:04,VALID,1007.32,VALID,0,INVALID,124.773,VALID,0,VALID,23.5363,VALID,187,VALID,0,
2014-12-23, 03:45:04,VALID,1007.31,VALID,0,INVALID,124.849,VALID,0,VALID,23.5771,VALID,187,VALID,0,
2014-12-23, 03:46:04,VALID,1007.31,VALID,0,INVALID,124.834,VALID,0,VALID,23.5966,VALID,187,VALID,0,
2014-12-23, 03:47:04,VALID,1007.34,VALID,0,INVALID,124.902,VALID,0,VALID,23.5966,VALID,187,VALID,0,
2014-12-23, 03:48:04,VALID,1007.32,VALID,0,INVALID,124.933,VALID,0,VALID,23.5753,VALID,187,VALID,0,
2014-12-23, 03:49:04,VALID,1007.32,VALID,0,INVALID,125.024,VALID,0,VALID,23.5771,VALID,187,VALID,0,
2014-12-23, 03:50:04,VALID,1007.33,VALID,0,INVALID,125.1,VALID,0,VALID,23.5966,VALID,187,VALID,0,
2014-12-23, 03:51:04,VALID,1007.33,VALID,0,INVALID,125.139,VALID,0,VALID,23.5771,VALID,187,VALID,0,
2014-12-23, 03:52:04,VALID,1007.31,VALID,0,INVALID,125.2,VALID,0,VALID,23.6179,VALID,187,VALID,0,
2014-12-23, 03:53:04,VALID,1007.3,VALID,0,INVALID,125.261,VALID,0,VALID,23.5753,VALID,187,VALID,0,